| time (UTC) | temp F | wind direction | speed knots | gust knots | rain 1hr in | rain 24hr in | rain mn in | humidity % | barometer mb |
| 20260906233625 | 98 | 88 | 1.7 | 3.5 | 0.00 | 0.00 | 0.00 | 43 | 1007.2 |
| 20260906232704 | 98 | 122 | 1.7 | 7.0 | 0.00 | 0.00 | 0.00 | 43 | 1007.1 |
| 20260906231803 | 98 | 122 | 1.7 | 4.3 | 0.00 | 0.00 | 0.00 | 44 | 1007.2 |
| 20260906230903 | 98 | 125 | 1.7 | 6.1 | 0.00 | 0.00 | 0.00 | 42 | 1007.3 |
| 20260906230004 | 100 | 87 | 2.6 | 6.1 | 0.00 | 0.00 | 0.00 | 40 | 1007.3 |
| 20260906225404 | 100 | 85 | 1.7 | 6.1 | 0.00 | 0.00 | 0.00 | 40 | 1007.2 |
| 20260906224525 | 100 | 82 | 2.6 | 9.6 | 0.00 | 0.00 | 0.00 | 40 | 1007.3 |
| 20260906223624 | 100 | 84 | 3.5 | 14.8 | 0.00 | 0.00 | 0.00 | 39 | 1007.2 |
| 20260906222704 | 99 | 81 | 1.7 | 7.0 | 0.00 | 0.00 | 0.00 | 41 | 1007.2 |
| 20260906221804 | 100 | 84 | 1.7 | 5.2 | 0.00 | 0.00 | 0.00 | 40 | 1007.3 |
| 20260906220924 | 102 | 84 | 1.7 | 6.1 | 0.00 | 0.00 | 0.00 | 38 | 1007.3 |
| 20260906220004 | 102 | 72 | 2.6 | 10.4 | 0.00 | 0.00 | 0.00 | 38 | 1007.3 |
| 20260906215403 | 101 | 93 | 1.7 | 7.0 | 0.00 | 0.00 | 0.00 | 40 | 1007.4 |
| 20260906214503 | 101 | 125 | 1.7 | 4.3 | 0.00 | 0.00 | 0.00 | 38 | 1007.5 |
| 20260906213604 | 104 | 79 | 2.6 | 7.8 | 0.00 | 0.00 | 0.00 | 38 | 1007.6 |
| 20260906212703 | 104 | 70 | 2.6 | 8.7 | 0.00 | 0.00 | 0.00 | 37 | 1007.7 |
| 20260906211803 | 104 | 91 | 1.7 | 8.7 | 0.00 | 0.00 | 0.00 | 37 | 1007.7 |
| 20260906210925 | 104 | 111 | 2.6 | 7.8 | 0.00 | 0.00 | 0.00 | 36 | 1007.8 |
| 20260906210003 | 104 | 138 | 2.6 | 7.0 | 0.00 | 0.00 | 0.00 | 36 | 1007.9 |
| 20260906205403 | 104 | 139 | 1.7 | 7.0 | 0.00 | 0.00 | 0.00 | 37 | 1008.0 |
| 20260906204504 | 104 | 100 | 1.7 | 6.1 | 0.00 | 0.00 | 0.00 | 38 | 1008.1 |
| 20260906203604 | 104 | 98 | 1.7 | 7.8 | 0.00 | 0.00 | 0.00 | 37 | 1008.2 |
| 20260906202704 | 104 | 75 | 2.6 | 7.8 | 0.00 | 0.00 | 0.00 | 40 | 1008.3 |
| 20260906201804 | 103 | 124 | 2.6 | 7.8 | 0.00 | 0.00 | 0.00 | 38 | 1008.5 |
| 20260906200924 | 104 | 114 | 1.7 | 6.1 | 0.00 | 0.00 | 0.00 | 39 | 1008.5 |
| 20260906200003 | 103 | 77 | 2.6 | 7.0 | 0.00 | 0.00 | 0.00 | 39 | 1008.6 |
| 20260906195403 | 102 | 107 | 2.6 | 6.1 | 0.00 | 0.00 | 0.00 | 40 | 1008.6 |
| 20260906194504 | 102 | 137 | 1.7 | 6.1 | 0.00 | 0.00 | 0.00 | 40 | 1008.8 |
| 20260906193625 | 102 | 49 | 2.6 | 10.4 | 0.00 | 0.00 | 0.00 | 41 | 1008.9 |
| 20260906192704 | 102 | 59 | 2.6 | 8.7 | 0.00 | 0.00 | 0.00 | 42 | 1009.0 |
| 20260906191803 | 101 | 73 | 2.6 | 6.1 | 0.00 | 0.00 | 0.00 | 41 | 1009.1 |
| 20260906190903 | 100 | 144 | 2.6 | 11.3 | 0.00 | 0.00 | 0.00 | 44 | 1009.2 |
| 20260906190003 | 100 | 152 | 3.5 | 7.0 | 0.00 | 0.00 | 0.00 | 43 | 1009.3 |
| 20260906185404 | 100 | 141 | 2.6 | 7.0 | 0.00 | 0.00 | 0.00 | 43 | 1009.3 |
| 20260906184503 | 99 | 135 | 1.7 | 4.3 | 0.00 | 0.00 | 0.00 | 45 | 1009.5 |
| 20260906183624 | 101 | 134 | 1.7 | 8.7 | 0.00 | 0.00 | 0.00 | 43 | 1009.7 |
| 20260906182703 | 100 | 120 | 1.7 | 4.3 | 0.00 | 0.00 | 0.00 | 45 | 1009.7 |
| 20260906181803 | 99 | 135 | 2.6 | 7.0 | 0.00 | 0.00 | 0.00 | 45 | 1009.9 |
| 20260906180904 | 98 | 130 | 1.7 | 6.1 | 0.00 | 0.00 | 0.00 | 47 | 1009.9 |
| 20260906180024 | 97 | 133 | 1.7 | 5.2 | 0.00 | 0.00 | 0.00 | 47 | 1010.0 |
| 20260906175404 | 98 | 73 | 1.7 | 7.8 | 0.00 | 0.00 | 0.00 | 48 | 1010.1 |
| 20260906174503 | 97 | 151 | 2.6 | 7.8 | 0.00 | 0.00 | 0.00 | 49 | 1010.3 |
| 20260906173603 | 98 | 75 | 1.7 | 7.0 | 0.00 | 0.00 | 0.00 | 49 | 1010.4 |
| 20260906172704 | 96 | 60 | 1.7 | 7.8 | 0.00 | 0.00 | 0.00 | 52 | 1010.6 |
| 20260906171825 | 96 | 136 | 2.6 | 6.1 | 0.00 | 0.00 | 0.00 | 51 | 1010.8 |
| 20260906170903 | 95 | 152 | 2.6 | 7.8 | 0.00 | 0.00 | 0.00 | 52 | 1011.0 |
| 20260906170025 | 95 | 149 | 0.9 | 3.5 | 0.00 | 0.00 | 0.00 | 54 | 1011.1 |
| 20260906165403 | 95 | 126 | 1.7 | 3.5 | 0.00 | 0.00 | 0.00 | 54 | 1011.2 |
| 20260906164504 | 94 | 102 | 1.7 | 5.2 | 0.00 | 0.00 | 0.00 | 55 | 1011.3 |
| 20260906163603 | 93 | 88 | 1.7 | 5.2 | 0.00 | 0.00 | 0.00 | 58 | 1011.3 |
| 20260906162704 | 92 | 106 | 1.7 | 3.5 | 0.00 | 0.00 | 0.00 | 61 | 1011.3 |
| 20260906161803 | 91 | 88 | 1.7 | 5.2 | 0.00 | 0.00 | 0.00 | 63 | 1011.2 |
| 20260906160903 | 90 | 62 | 2.6 | 7.0 | 0.00 | 0.00 | 0.00 | 66 | 1011.2 |
| 20260906160004 | 89 | 85 | 0.9 | 2.6 | 0.00 | 0.00 | 0.00 | 68 | 1011.2 |
| 20260906155403 | 88 | 68 | 0.9 | 2.6 | 0.00 | 0.00 | 0.00 | 69 | 1011.3 |
| 20260906154504 | 87 | 74 | 1.7 | 4.3 | 0.00 | 0.00 | 0.00 | 70 | 1011.2 |
| 20260906153604 | 86 | 126 | 0.9 | 5.2 | 0.00 | 0.00 | 0.00 | 72 | 1011.2 |
| 20260906152703 | 86 | 55 | 0.9 | 2.6 | 0.00 | 0.00 | 0.00 | 73 | 1011.2 |
| 20260906151803 | 85 | 167 | 1.7 | 5.2 | 0.00 | 0.00 | 0.00 | 74 | 1011.2 |
| 20260906150903 | 84 | 167 | 0.9 | 4.3 | 0.00 | 0.00 | 0.00 | 75 | 1011.2 |
| 20260906150004 | 84 | 0 | 0.0 | 0.0 | 0.00 | 0.00 | 0.00 | 77 | 1011.2 |
| 20260906145404 | 83 | 0 | 0.0 | 0.0 | 0.00 | 0.00 | 0.00 | 78 | 1011.2 |
| 20260906144525 | 83 | 164 | 0.9 | 4.3 | 0.00 | 0.00 | 0.00 | 78 | 1011.2 |
| 20260906143603 | 82 | 160 | 0.9 | 2.6 | 0.00 | 0.00 | 0.00 | 79 | 1011.2 |
| 20260906142703 | 82 | 156 | 0.9 | 4.3 | 0.00 | 0.00 | 0.00 | 80 | 1011.1 |
| 20260906141804 | 81 | 144 | 0.0 | 2.6 | 0.00 | 0.00 | 0.00 | 81 | 1011.1 |
| 20260906140903 | 80 | 162 | 0.9 | 4.3 | 0.00 | 0.00 | 0.00 | 82 | 1011.2 |
| 20260906140004 | 80 | 168 | 0.9 | 3.5 | 0.00 | 0.00 | 0.00 | 83 | 1010.9 |
| 20260906135404 | 79 | 164 | 0.9 | 3.5 | 0.00 | 0.00 | 0.00 | 84 | 1011.0 |
| 20260906134503 | 79 | 151 | 0.9 | 3.5 | 0.00 | 0.00 | 0.00 | 85 | 1011.0 |
| 20260906133603 | 78 | 151 | 0.9 | 5.2 | 0.00 | 0.00 | 0.00 | 86 | 1010.9 |
| 20260906132704 | 77 | 0 | 0.0 | 0.0 | 0.00 | 0.00 | 0.00 | 87 | 1010.8 |
| 20260906131804 | 77 | 0 | 0.0 | 0.0 | 0.00 | 0.00 | 0.00 | 87 | 1010.8 |
| 20260906130903 | 76 | 0 | 0.0 | 0.0 | 0.00 | 0.00 | 0.00 | 87 | 1010.9 |
| 20260906130004 | 76 | 0 | 0.0 | 0.0 | 0.00 | 0.00 | 0.00 | 87 | 1010.8 |
| 20260906125403 | 76 | 0 | 0.0 | 0.0 | 0.00 | 0.00 | 0.00 | 87 | 1010.7 |
| 20260906124504 | 76 | 0 | 0.0 | 0.0 | 0.00 | 0.00 | 0.00 | 87 | 1010.6 |
| 20260906123603 | 76 | 0 | 0.0 | 0.0 | 0.00 | 0.00 | 0.00 | 87 | 1010.6 |
| 20260906122704 | 76 | 0 | 0.0 | 0.0 | 0.00 | 0.00 | 0.00 | 86 | 1010.5 |
| 20260906121803 | 76 | 0 | 0.0 | 0.0 | 0.00 | 0.00 | 0.00 | 86 | 1010.4 |
| 20260906120924 | 76 | 0 | 0.0 | 0.0 | 0.00 | 0.00 | 0.00 | 86 | 1010.3 |
| 20260906120004 | 76 | 0 | 0.0 | 0.0 | 0.00 | 0.00 | 0.00 | 86 | 1010.3 |
| 20260906115404 | 76 | 0 | 0.0 | 0.0 | 0.00 | 0.00 | 0.00 | 85 | 1010.3 |
| 20260906114503 | 76 | 0 | 0.0 | 0.0 | 0.00 | 0.00 | 0.00 | 85 | 1010.2 |
| 20260906113603 | 76 | 0 | 0.0 | 0.0 | 0.00 | 0.00 | 0.00 | 84 | 1010.2 |
| 20260906112703 | 76 | 0 | 0.0 | 0.0 | 0.00 | 0.00 | 0.00 | 84 | 1010.1 |
| 20260906111824 | 77 | 0 | 0.0 | 0.0 | 0.00 | 0.00 | 0.00 | 83 | 1010.0 |
| 20260906110925 | 77 | 0 | 0.0 | 0.0 | 0.00 | 0.00 | 0.00 | 84 | 1010.0 |
| 20260906110003 | 77 | 0 | 0.0 | 0.0 | 0.00 | 0.00 | 0.00 | 83 | 1010.0 |
| 20260906105403 | 77 | 69 | 0.0 | 2.6 | 0.00 | 0.00 | 0.00 | 83 | 1010.0 |
| 20260906104503 | 77 | 90 | 0.0 | 2.6 | 0.00 | 0.00 | 0.00 | 83 | 1009.9 |
| 20260906103603 | 78 | 0 | 0.0 | 0.0 | 0.00 | 0.00 | 0.00 | 82 | 1009.8 |
| 20260906102724 | 78 | 0 | 0.0 | 0.0 | 0.00 | 0.00 | 0.00 | 82 | 1009.7 |
| 20260906101804 | 78 | 0 | 0.0 | 0.0 | 0.00 | 0.00 | 0.00 | 82 | 1009.6 |
| 20260906100903 | 78 | 0 | 0.0 | 0.0 | 0.00 | 0.00 | 0.00 | 82 | 1009.4 |
| 20260906100003 | 78 | 0 | 0.0 | 0.0 | 0.00 | 0.00 | 0.00 | 82 | 1009.3 |
| 20260906095404 | 78 | 0 | 0.0 | 0.0 | 0.00 | 0.00 | 0.00 | 82 | 1009.2 |
| 20260906094504 | 78 | 0 | 0.0 | 0.0 | 0.00 | 0.00 | 0.00 | 81 | 1009.1 |
| 20260906093603 | 78 | 165 | 0.0 | 1.7 | 0.00 | 0.00 | 0.00 | 82 | 1009.1 |
| 20260906092703 | 78 | 167 | 0.9 | 1.7 | 0.00 | 0.00 | 0.00 | 81 | 1009.1 |
| 20260906091803 | 78 | 158 | 0.9 | 3.5 | 0.00 | 0.00 | 0.00 | 81 | 1009.1 |
| 20260906090903 | 79 | 160 | 0.9 | 3.5 | 0.00 | 0.00 | 0.00 | 81 | 1009.0 |
| 20260906090003 | 79 | 173 | 0.9 | 3.5 | 0.00 | 0.00 | 0.00 | 81 | 1009.0 |
| 20260906085404 | 79 | 168 | 0.9 | 1.7 | 0.00 | 0.00 | 0.00 | 80 | 1009.0 |
| 20260906084504 | 79 | 0 | 0.0 | 0.0 | 0.00 | 0.00 | 0.00 | 80 | 1008.9 |
| 20260906083603 | 79 | 0 | 0.0 | 0.0 | 0.00 | 0.00 | 0.00 | 80 | 1009.0 |
| 20260906082703 | 79 | 0 | 0.0 | 0.0 | 0.00 | 0.00 | 0.00 | 80 | 1009.1 |
| 20260906081803 | 80 | 0 | 0.0 | 0.0 | 0.00 | 0.00 | 0.00 | 79 | 1009.2 |
| 20260906080903 | 80 | 0 | 0.0 | 0.0 | 0.00 | 0.00 | 0.00 | 79 | 1009.2 |
| 20260906080004 | 80 | 0 | 0.0 | 0.0 | 0.00 | 0.00 | 0.00 | 78 | 1009.1 |
| 20260906075403 | 80 | 0 | 0.0 | 0.0 | 0.00 | 0.00 | 0.00 | 78 | 1009.0 |
| 20260906074503 | 80 | 197 | 0.0 | 2.6 | 0.00 | 0.00 | 0.00 | 78 | 1009.1 |
| 20260906073603 | 80 | 169 | 0.9 | 3.5 | 0.00 | 0.00 | 0.00 | 78 | 1009.1 |
| 20260906072703 | 80 | 170 | 1.7 | 5.2 | 0.00 | 0.00 | 0.00 | 78 | 1009.2 |
| 20260906071803 | 81 | 167 | 1.7 | 4.3 | 0.00 | 0.00 | 0.00 | 77 | 1009.4 |
| 20260906070903 | 81 | 170 | 0.9 | 4.3 | 0.00 | 0.00 | 0.00 | 77 | 1009.5 |
| 20260906070003 | 81 | 168 | 1.7 | 5.2 | 0.00 | 0.00 | 0.00 | 77 | 1009.7 |
| 20260906065403 | 81 | 163 | 1.7 | 5.2 | 0.00 | 0.00 | 0.00 | 77 | 1009.7 |
| 20260906064504 | 81 | 166 | 1.7 | 4.3 | 0.00 | 0.00 | 0.00 | 76 | 1009.7 |
| 20260906063603 | 82 | 162 | 1.7 | 4.3 | 0.00 | 0.00 | 0.00 | 76 | 1009.8 |
| 20260906062703 | 82 | 166 | 1.7 | 5.2 | 0.00 | 0.00 | 0.00 | 75 | 1009.8 |
| 20260906061803 | 82 | 168 | 1.7 | 5.2 | 0.00 | 0.00 | 0.00 | 75 | 1009.9 |
| 20260906060904 | 82 | 170 | 1.7 | 6.1 | 0.00 | 0.00 | 0.00 | 75 | 1010.0 |
| 20260906060003 | 83 | 169 | 2.6 | 5.2 | 0.00 | 0.00 | 0.00 | 74 | 1009.9 |
| 20260906055403 | 83 | 167 | 2.6 | 5.2 | 0.00 | 0.00 | 0.00 | 74 | 1009.9 |
| 20260906054503 | 83 | 162 | 1.7 | 4.3 | 0.00 | 0.00 | 0.00 | 74 | 1009.7 |
| 20260906053603 | 83 | 163 | 0.0 | 3.5 | 0.00 | 0.00 | 0.00 | 74 | 1009.6 |
| 20260906052724 | 83 | 163 | 0.0 | 1.7 | 0.00 | 0.00 | 0.00 | 73 | 1009.5 |
| 20260906051804 | 83 | 175 | 0.9 | 3.5 | 0.00 | 0.00 | 0.00 | 73 | 1009.5 |
| 20260906050903 | 83 | 165 | 1.7 | 5.2 | 0.00 | 0.00 | 0.00 | 73 | 1009.5 |
| 20260906050004 | 84 | 163 | 1.7 | 5.2 | 0.00 | 0.00 | 0.00 | 72 | 1009.6 |
| 20260906045403 | 84 | 161 | 1.7 | 4.3 | 0.00 | 0.00 | 0.00 | 72 | 1009.6 |
| 20260906044503 | 84 | 159 | 1.7 | 5.2 | 0.00 | 0.00 | 0.00 | 71 | 1009.6 |
| 20260906043603 | 84 | 157 | 1.7 | 5.2 | 0.00 | 0.00 | 0.00 | 71 | 1009.5 |
| 20260906042724 | 84 | 159 | 1.7 | 6.1 | 0.00 | 0.00 | 0.00 | 71 | 1009.5 |
| 20260906041803 | 84 | 165 | 1.7 | 4.3 | 0.00 | 0.00 | 0.00 | 70 | 1009.4 |
| 20260906040924 | 84 | 174 | 1.7 | 4.3 | 0.00 | 0.00 | 0.00 | 70 | 1009.5 |
| 20260906040004 | 85 | 169 | 1.7 | 5.2 | 0.00 | 0.00 | 0.00 | 70 | 1009.4 |
| 20260906035424 | 85 | 166 | 1.7 | 5.2 | 0.00 | 0.00 | 0.00 | 70 | 1009.2 |
| 20260906034503 | 85 | 158 | 1.7 | 5.2 | 0.00 | 0.00 | 0.00 | 70 | 1009.4 |
| 20260906033624 | 85 | 158 | 1.7 | 5.2 | 0.00 | 0.00 | 0.00 | 69 | 1009.4 |
| 20260906032703 | 86 | 151 | 1.7 | 4.3 | 0.00 | 0.00 | 0.00 | 69 | 1009.5 |
| 20260906031803 | 86 | 148 | 2.6 | 7.8 | 0.00 | 0.00 | 0.00 | 68 | 1009.5 |
| 20260906030903 | 86 | 148 | 2.6 | 7.8 | 0.00 | 0.00 | 0.00 | 68 | 1009.4 |
| 20260906030003 | 86 | 146 | 2.6 | 6.1 | 0.00 | 0.00 | 0.00 | 68 | 1009.3 |
| 20260906025404 | 86 | 143 | 1.7 | 6.1 | 0.00 | 0.00 | 0.00 | 67 | 1009.4 |
| 20260906024503 | 87 | 146 | 3.5 | 7.8 | 0.00 | 0.00 | 0.00 | 67 | 1009.2 |
| 20260906023603 | 87 | 146 | 3.5 | 7.8 | 0.00 | 0.00 | 0.00 | 67 | 1009.1 |
| 20260906022703 | 87 | 149 | 2.6 | 7.0 | 0.00 | 0.00 | 0.00 | 66 | 1008.9 |
| 20260906021803 | 87 | 148 | 3.5 | 11.3 | 0.00 | 0.00 | 0.00 | 66 | 1008.6 |
| 20260906020903 | 87 | 148 | 3.5 | 11.3 | 0.00 | 0.00 | 0.00 | 65 | 1008.6 |
| 20260906020003 | 88 | 142 | 2.6 | 8.7 | 0.00 | 0.00 | 0.00 | 65 | 1008.5 |
| 20260906015404 | 88 | 141 | 3.5 | 8.7 | 0.00 | 0.00 | 0.00 | 65 | 1008.4 |
| 20260906014503 | 88 | 143 | 3.5 | 9.6 | 0.00 | 0.00 | 0.00 | 64 | 1008.3 |
| 20260906013603 | 88 | 140 | 2.6 | 9.6 | 0.00 | 0.00 | 0.00 | 63 | 1008.2 |
| 20260906012703 | 88 | 141 | 3.5 | 7.8 | 0.00 | 0.00 | 0.00 | 63 | 1008.0 |
| 20260906011803 | 89 | 137 | 3.5 | 10.4 | 0.00 | 0.00 | 0.00 | 61 | 1007.9 |
| 20260906010903 | 90 | 129 | 2.6 | 7.0 | 0.00 | 0.00 | 0.00 | 59 | 1007.8 |
| 20260906010003 | 90 | 130 | 3.5 | 7.8 | 0.00 | 0.00 | 0.00 | 56 | 1007.9 |
| 20260906005403 | 92 | 129 | 4.3 | 9.6 | 0.00 | 0.00 | 0.00 | 54 | 1007.9 |
| 20260906004504 | 94 | 143 | 3.5 | 11.3 | 0.00 | 0.00 | 0.00 | 48 | 1007.7 |
| 20260906003604 | 95 | 147 | 1.7 | 6.1 | 0.00 | 0.00 | 0.00 | 46 | 1007.5 |
| 20260906002704 | 95 | 151 | 2.6 | 7.8 | 0.00 | 0.00 | 0.00 | 46 | 1007.5 |
| 20260906001804 | 96 | 145 | 3.5 | 8.7 | 0.00 | 0.00 | 0.00 | 45 | 1007.4 |
| 20260906000904 | 96 | 148 | 3.5 | 8.7 | 0.00 | 0.00 | 0.00 | 44 | 1007.4 |
| 20260906000004 | 96 | 149 | 2.6 | 8.7 | 0.00 | 0.00 | 0.00 | 43 | 1007.3 |
| 20260905235405 | 97 | 152 | 2.6 | 9.6 | 0.00 | 0.00 | 0.00 | 43 | 1007.2 |
| 20260905234504 | 98 | 148 | 2.6 | 9.6 | 0.00 | 0.00 | 0.00 | 42 | 1007.1 |